TimeCST,TemperatureF,Dew PointF,Humidity,Sea Level PressureIn,VisibilityMPH,Wind Direction,Wind SpeedMPH,Gust SpeedMPH,PrecipitationIn,Events,Conditions,WindDirDegrees,DateUTC
12:53 AM,37.9,28.0,68,30.35,10.0,North,18.4,25.3,N/A,,Overcast,360,2014-02-06 06:53:00
1:53 AM,37.9,27.0,65,30.33,10.0,North,19.6,-,N/A,,Overcast,360,2014-02-06 07:53:00
2:53 AM,37.0,27.0,67,30.34,10.0,North,17.3,-,N/A,,Overcast,360,2014-02-06 08:53:00
3:53 AM,36.0,26.1,67,30.35,10.0,North,24.2,-,N/A,,Overcast,360,2014-02-06 09:53:00
4:53 AM,35.1,25.0,67,30.35,10.0,North,25.3,32.2,N/A,,Overcast,360,2014-02-06 10:53:00
6:53 AM,34.0,23.0,64,30.41,10.0,North,23.0,29.9,N/A,,Overcast,360,2014-02-06 12:53:00
7:53 AM,34.0,24.1,67,30.44,10.0,North,16.1,-,N/A,,Overcast,360,2014-02-06 13:53:00
8:53 AM,35.1,24.1,64,30.45,10.0,North,15.0,-,N/A,,Overcast,360,2014-02-06 14:53:00
9:53 AM,35.1,24.1,64,30.47,10.0,North,17.3,-,N/A,,Overcast,350,2014-02-06 15:53:00
10:53 AM,36.0,24.1,62,30.45,10.0,North,17.3,-,N/A,,Overcast,360,2014-02-06 16:53:00
11:53 AM,37.0,24.1,59,30.44,10.0,North,21.9,-,N/A,,Overcast,360,2014-02-06 17:53:00
12:53 PM,39.0,25.0,57,30.40,10.0,North,21.9,-,N/A,,Overcast,10,2014-02-06 18:53:00
1:53 PM,39.0,25.0,57,30.37,10.0,North,19.6,-,N/A,,Overcast,360,2014-02-06 19:53:00
2:53 PM,39.0,25.0,57,30.37,10.0,North,15.0,-,N/A,,Overcast,360,2014-02-06 20:53:00
3:53 PM,37.9,25.0,60,30.36,10.0,North,15.0,-,N/A,,Overcast,360,2014-02-06 21:53:00
4:53 PM,37.0,25.0,62,30.36,10.0,North,16.1,-,N/A,,Overcast,360,2014-02-06 22:53:00
5:53 PM,36.0,25.0,64,30.35,10.0,North,16.1,-,N/A,,Overcast,10,2014-02-06 23:53:00
6:53 PM,36.0,24.1,62,30.36,10.0,North,15.0,-,N/A,,Overcast,360,2014-02-07 00:53:00
7:53 PM,36.0,25.0,64,30.37,10.0,North,12.7,-,N/A,,Overcast,10,2014-02-07 01:53:00
8:53 PM,36.0,25.0,64,30.38,10.0,North,15.0,-,N/A,,Overcast,360,2014-02-07 02:53:00
9:53 PM,35.1,25.0,67,30.38,10.0,North,12.7,-,N/A,,Overcast,10,2014-02-07 03:53:00
10:53 PM,35.1,25.0,67,30.38,10.0,North,15.0,-,N/A,,Overcast,360,2014-02-07 04:53:00
11:34 PM,35.1,25.0,67,30.38,10.0,North,15.0,-,N/A,,Overcast,350,2014-02-07 05:34:00
11:53 PM,35.1,25.0,67,30.38,10.0,North,15.0,-,N/A,,Overcast,350,2014-02-07 05:53:00